Location: Eurasberg
(48.3353°N, 11.0839°E)
Time: 19:31:27
(UTC+00:00)

Cosmos 1269 Rocket - Pass Details

Date: 18 January 2026
Orbit: 769 x 775 km, 74.1° (Epoch: 13 February)

Event Time Altitude Azimuth Distance (km) Brightness Sun altitude
Rises 04:28:15 0° 191° (S) 3,237 7.2 -24.7°
Reaches altitude 10° 04:30:38 10° 188° (S) 2,315 6.4 -24.3°
Maximum altitude 04:35:50 64° 108° (ESE) 861 4.4 -23.4°
Drops below altitude 10° 04:41:03 10° 28° (NNE) 2,333 6.8 -22.5°
Sets 04:43:28 0° 26° (NNE) 3,265 7.5 -22.1°
